STARLINK-1171, 45062

Orbit data source: Space-Track

STARLINK-1171, 45062 is a payload satellite owned by SpaceX/Seattle (US) in LEO that was launched on Wed, 29 Jan 2020 UTC via an FALCON 9 launch vehicle from the Air Force Eastern Test Range (AFETR). Payload-class satellites include a variety of spacecraft equipped with specific instruments for various scientific and technological missions. These include communications satellites like Starlink; space stations such as the ISS; scientific satellites like the Hubble; Earth observation satellites from companies like Planet Labs, Umbra, and HawkEye 360; GPS; miniature CubeSats for education and research; and military/defense satellites.

Loading next visibility...
Identifier
45062, 2020-006U
Orbit
LEO
Country
Flag of USUS
Related business
Manufacturer
SpaceX/Seattle
Mission
Partially operational Commercial Communications
Bus & Motor
STARLINK, Unknown motor
Mass
260 kg wet, ~248 kg dry
Launch date (UTC)
2020-01-29 (6 years ago)
Launch vehicle
FALCON 9
Launch site
Air Force Eastern Test Range (AFETR)
Object type
Payload
Rocket body
Debris
Shape & HBR
Box + 1 Pan, 10.1 m
Radar Cross Section
13.562 m², Large (>1 m²)

Expand to show TLE details & history
Last TLE update: 3 hours ago

TLE from 3 hours ago
0 STARLINK-1171
1 45062U 20006U   26038.66668981  .00109960  00000-0  18049-2 0  9993
2 45062  53.0487  34.5766 0003653 301.7577 275.3847 15.51593138  5703
Epoch: 2026-02-07T16:00Z
TLE epoch observation values (Epoch: 2026-02-07T16:00:01.999Z)
Latitude
-29.02623°
Longitude
-138.6937°
Altitude
420.599 km
Speed
7.659 km/s
True Right ascension
15h 56m 24s
True Declination
-28° 52' 24"
Sunlit
Object was in daylight at epoch
Visualization orbit readout
Latitude
Unknown
Longitude
Unknown
Altitude
Unknown
Speed
Unknown
Apparent Right ascension
Unknown
Apparent Declination
Unknown
Sunlit
N/A
Visualization observer readout
Local Sidereal Time
21:10:58
Azimuth
Unknown
Elevation
Unknown
Doppler factor
Unknown
Orbital elements
Apogee altitude
414.832 km
Perigee altitude
409.87 km
Semi-major axis
6,790.488 km
Eccentricity
0.00037
Inclination
53.0487°
RAAN
34.5766°
Arg. of periapsis
301.7577°
True anomaly
275.34302°
Mean anomaly
275.3847°
Eccentric anomaly
275.36386°
Mean motion
3.87875 °/min
Orbital period
92.81 mins
BSTAR
0.0018049
Loading maneuver chart data...
Computing Atmospheric mass density...

Documentation

Showing up to 5 results
|